[[{"header":{"parameterUnit":"m.s-1","parameterCategory":1,"la1":30.2991,"la2":30.254,"lo1":-89.0895,"lo2":-89.0444,"dy":0.0017,"dx":0.0017,"nx":28,"ny":28,"refTime":"2023-07-28T03:00:00:Z","depth":0,"parameterNumber":2,"parameterNumberName":"U-component_of_WINDS"},"data":[0,0,0,0,0,0,0,0,0,0,0,0,0,0,0,0,0,0,0,0,0,0,0,0,0,0,0,0,0,0,0,0,0,0,0,0,0,0,0,0,0,0,0,0,0,0,0,0,0,0,0,0,0,0,0,0,0,0,-0.4136,-0.4134,0,-0.3993,-0.3991,-0.3989,-0.3916,-0.3916,-0.3916,-0.3916,-0.3767,-0.3763,-0.3759,0,0,0,0,0,0,0,0,0,0,0,0,0,-0.4346,-0.4343,-0.4136,-0.4134,-0.4132,-0.3993,-0.3991,-0.3989,-0.3916,-0.3916,-0.3916,-0.3916,-0.3768,-0.3764,-0.3759,0,0,0,0,0,0,0,0,0,0,0,0,0,-0.4234,-0.4342,-0.4136,-0.4079,-0.4073,-0.3993,-0.3991,-0.3988,-0.3916,-0.3916,-0.3916,-0.3916,-0.377,-0.3764,-0.3758,-0.3724,0,0,-0.374,-0.3738,0,0,0,0,0,0,0,0,-0.4241,-0.4227,-0.4089,-0.4083,-0.4076,-0.3972,-0.401,-0.39,-0.3916,-0.3975,-0.3916,-0.3916,-0.3835,-0.3824,-0.3797,-0.3717,-0.3711,-0.374,-0.3736,-0.3734,-0.3732,0,0,0,0,0,0,0,-0.4249,-0.4232,-0.4079,-0.4088,-0.4079,-0.4061,-0.4045,-0.3989,-0.3907,-0.397,-0.3965,-0.3949,-0.3831,-0.3803,-0.3793,-0.3708,-0.374,-0.3735,-0.3731,-0.3729,-0.3595,-0.3595,0,0,0,0,0,0,-0.4266,-0.4239,-0.4084,-0.4075,-0.416,-0.4057,-0.4039,-0.4005,-0.3908,-0.3893,-0.3949,-0.3946,-0.3813,-0.38,-0.3788,-0.3742,-0.3734,-0.3728,-0.3725,-0.3595,-0.3595,-0.3594,0,0,0,0,0,0,-0.427,-0.4252,-0.4089,-0.4155,-0.4133,-0.4054,-0.4016,-0.4003,-0.3974,-0.3892,-0.3877,-0.3935,-0.3812,-0.3796,-0.3741,-0.3735,-0.3726,-0.372,-0.3595,-0.3595,-0.3595,-0.3649,0,0,0,0,0,0,-0.4277,-0.4255,-0.4241,-0.4156,-0.413,-0.4045,-0.4016,-0.4,-0.3964,-0.3959,-0.3875,-0.3861,-0.3811,-0.375,-0.3735,-0.3727,-0.3716,-0.3595,-0.3595,-0.3595,-0.3648,-0.3651,-0.3654,0,0,0,0,0,-0.4285,-0.4261,-0.424,-0.4222,-0.4111,-0.4045,-0.403,-0.3974,-0.3964,-0.395,-0.3897,-0.3863,-0.3739,-0.3745,-0.3727,-0.3718,-0.3595,-0.3595,-0.3595,-0.3646,-0.365,-0.3654,0,0,0,0,0,0,-0.4346,-0.4249,-0.4225,-0.4173,-0.4118,-0.4033,-0.4012,-0.398,-0.3927,-0.3924,-0.3856,-0.3838,-0.3789,-0.3748,-0.3756,-0.368,-0.3664,-0.366,-0.3709,-0.3712,-0.3715,-0.3726,-0.3711,0,0,0,0,0,-0.4354,-0.4309,-0.4226,-0.4188,-0.4162,-0.4093,-0.4062,-0.4024,-0.3964,-0.394,-0.3883,-0.3826,-0.3774,-0.3741,-0.3688,-0.3642,-0.3623,-0.3627,-0.363,-0.3633,-0.3631,-0.3604,-0.3605,-0.3594,-0.3594,-0.3594,0,0,-0.4368,-0.431,-0.4285,-0.4199,-0.4152,-0.4107,-0.4073,-0.4026,-0.3992,-0.3932,-0.3877,-0.3834,-0.3766,-0.3716,-0.369,-0.368,-0.363,-0.3633,-0.3636,-0.3632,-0.3604,-0.3605,-0.3606,-0.3594,-0.3594,-0.3594,0,0,-0.4373,-0.4324,-0.4287,-0.4242,-0.4172,-0.4126,-0.4118,-0.4038,-0.4007,-0.3951,-0.3906,-0.3864,-0.3776,-0.373,-0.3695,-0.3685,-0.3652,-0.367,-0.3686,-0.3661,-0.3662,-0.3663,-0.3659,-0.3659,-0.3668,-0.3668,-0.3668,0,-0.44,-0.433,-0.4273,-0.4229,-0.4193,-0.4139,-0.4102,-0.406,-0.3976,-0.3952,-0.3942,-0.3832,-0.3782,-0.372,-0.3718,-0.3692,-0.368,-0.3678,-0.3667,-0.3667,-0.3666,-0.3662,-0.3661,-0.367,-0.367,-0.367,-0.3669,0,-0.4367,-0.432,-0.4299,-0.4221,-0.4183,-0.4143,-0.408,-0.4048,-0.4014,-0.397,-0.3914,-0.3853,-0.3788,-0.3771,-0.3737,-0.3705,-0.3701,-0.368,-0.3661,-0.3671,-0.3666,-0.3664,-0.3674,-0.3673,-0.3672,-0.3672,0,0,-0.4403,-0.4296,-0.4289,-0.4254,-0.4174,-0.4136,-0.4095,-0.4032,-0.4006,-0.3951,-0.3915,-0.3843,-0.3824,-0.3784,-0.3744,-0.3723,-0.372,-0.3704,-0.3701,-0.3709,-0.3682,-0.3698,-0.3697,-0.3698,-0.3698,-0.3697,-0.3688,0,-0.4396,-0.4318,-0.4267,-0.421,-0.4166,-0.4115,-0.4079,-0.4027,-0.3985,-0.3942,-0.3895,-0.3845,-0.3823,-0.3799,-0.3776,-0.3725,-0.3713,-0.3725,-0.3663,-0.3662,-0.3681,-0.3695,-0.3711,-0.3705,-0.3686,-0.3685,-0.3685,0,-0.4376,-0.4324,-0.4263,-0.419,-0.4169,-0.4138,-0.4077,-0.4037,-0.3977,-0.3948,-0.3906,-0.3866,-0.382,-0.3808,-0.3744,-0.3753,-0.3725,-0.3697,-0.3695,-0.3687,-0.3673,-0.3686,-0.3701,-0.37,-0.3681,-0.3682,-0.3682,0,-0.4409,-0.4323,-0.4276,-0.4247,-0.4161,-0.414,-0.4103,-0.4042,-0.4009,-0.3956,-0.3934,-0.3877,-0.3845,-0.3802,-0.3749,-0.3744,-0.3691,-0.3673,-0.3666,-0.3667,-0.3655,-0.3656,-0.3666,-0.3639,-0.3639,-0.3639,-0.3639,0,-0.4405,-0.437,-0.429,-0.4261,-0.422,-0.4162,-0.4124,-0.4082,-0.403,-0.3992,-0.3945,-0.3911,-0.3842,-0.38,-0.3758,-0.3712,-0.3698,-0.3674,-0.3663,-0.3677,-0.368,-0.3657,-0.3656,-0.3639,-0.3639,-0.3639,-0.3639,0,-0.4434,-0.4379,-0.4324,-0.4247,-0.4228,-0.4201,-0.4135,-0.4106,-0.4063,-0.4016,-0.4001,-0.3933,-0.3881,-0.3824,-0.3752,-0.3724,-0.3681,-0.3665,-0.3701,-0.3695,-0.3691,-0.3692,-0.3684,-0.3681,-0.3657,-0.3658,-0.3658,0,-0.4435,-0.4407,-0.4328,-0.43,-0.4264,-0.4219,-0.4185,-0.4128,-0.4094,-0.4026,-0.4004,-0.3949,-0.3901,-0.382,-0.3765,-0.371,-0.3693,-0.3694,-0.3684,-0.37,-0.3692,-0.3695,-0.3692,-0.3697,-0.3697,-0.3698,-0.3698,0,-0.4442,-0.4417,-0.437,-0.4315,-0.4276,-0.4229,-0.418,-0.416,-0.4093,-0.4058,-0.4005,-0.3969,-0.3897,-0.3842,-0.3782,-0.3743,-0.371,-0.3702,-0.3697,-0.3711,-0.3734,-0.3722,-0.3709,-0.3702,-0.3702,-0.3701,-0.3701,-0.3701,-0.4456,-0.443,-0.4371,-0.4321,-0.4279,-0.4235,-0.4204,-0.4158,-0.4112,-0.405,-0.4019,-0.3966,-0.3909,-0.3824,-0.3787,-0.3745,-0.3734,-0.3727,-0.3725,-0.3724,-0.3729,-0.3742,-0.3733,-0.3733,-0.3733,-0.3733,-0.3733,0,-0.4462,-0.4422,-0.4377,-0.4311,-0.4272,-0.4246,-0.4191,-0.416,-0.4115,-0.4064,-0.4019,-0.3959,-0.3907,-0.3848,-0.3792,-0.377,-0.3754,-0.3758,-0.3758,-0.375,-0.3741,-0.3751,-0.3772,-0.3772,-0.3772,-0.3772,-0.3772,-0.3772,-0.446,-0.4413,-0.4382,-0.4315,-0.4275,-0.4223,-0.4195,-0.4155,-0.4114,-0.4049,-0.4006,-0.3969,-0.3915,-0.3856,-0.3807,-0.3791,-0.3773,-0.3782,-0.3761,-0.3754,-0.375,-0.3747,-0.3756,-0.3778,-0.3778,-0.3773,-0.3773,-0.3773]},{"header":{"parameterUnit":"m.s-1","parameterCategory":1,"la1":30.2991,"la2":30.254,"lo1":-89.0895,"lo2":-89.0444,"dy":0.0017,"dx":0.0017,"nx":28,"ny":28,"refTime":"2023-07-28T03:00:00:Z","depth":0,"parameterNumber":3,"parameterNumberName":"V-component_of_WINDS"},"data":[0,0,0,0,0,0,0,0,0,0,0,0,0,0,0,0,0,0,0,0,0,0,0,0,0,0,0,0,0,0,0,0,0,0,0,0,0,0,0,0,0,0,0,0,0,0,0,0,0,0,0,0,0,0,0,0,0,0,2.7682,2.7682,0,2.767,2.767,2.767,2.7731,2.7733,2.7734,2.7736,2.7716,2.7714,2.7712,0,0,0,0,0,0,0,0,0,0,0,0,0,2.7752,2.7751,2.7682,2.7682,2.7682,2.767,2.767,2.767,2.773,2.7733,2.7735,2.7737,2.7717,2.7715,2.7712,0,0,0,0,0,0,0,0,0,0,0,0,0,2.7729,2.775,2.7682,2.7711,2.7714,2.767,2.767,2.767,2.773,2.7733,2.7735,2.7738,2.7718,2.7715,2.7712,2.7638,0,0,2.7702,2.77,0,0,0,0,0,0,0,0,2.773,2.7726,2.7707,2.7709,2.7712,2.7705,2.7688,2.7659,2.7729,2.7723,2.7736,2.7739,2.771,2.7708,2.7699,2.7637,2.7636,2.7701,2.7699,2.7698,2.7697,0,0,0,0,0,0,0,2.7732,2.7727,2.7677,2.7707,2.7709,2.7723,2.7722,2.7682,2.7702,2.7724,2.7729,2.7727,2.7712,2.7702,2.7699,2.7636,2.7701,2.7699,2.7696,2.7695,2.7513,2.751,0,0,0,0,0,0,2.773,2.7728,2.7678,2.7677,2.7728,2.7719,2.7719,2.7704,2.7702,2.7705,2.7724,2.773,2.7706,2.7703,2.7699,2.7612,2.7698,2.7695,2.7693,2.7515,2.7512,2.7509,0,0,0,0,0,0,2.7732,2.7725,2.7678,2.7704,2.7699,2.7715,2.7698,2.7703,2.7693,2.7703,2.7706,2.7712,2.7708,2.7703,2.7653,2.7612,2.7693,2.769,2.7519,2.7514,2.751,2.7438,0,0,0,0,0,0,2.7733,2.7725,2.7699,2.7703,2.7697,2.7634,2.7696,2.77,2.7688,2.7695,2.7691,2.7693,2.771,2.7658,2.765,2.7609,2.7688,2.7522,2.7517,2.7512,2.7445,2.7432,2.7422,0,0,0,0,0,2.7736,2.7677,2.7697,2.7691,2.7665,2.7632,2.7628,2.7651,2.7685,2.7657,2.7663,2.7693,2.7618,2.7652,2.7644,2.7602,2.7525,2.7518,2.7512,2.745,2.7435,2.7422,0,0,0,0,0,0,2.7665,2.7678,2.77,2.7642,2.7636,2.7642,2.7608,2.7634,2.7616,2.7623,2.765,2.7649,2.7593,2.7593,2.763,2.753,2.7577,2.7569,2.7533,2.7518,2.7507,2.7508,2.7685,0,0,0,0,0,2.7644,2.7618,2.763,2.7577,2.7573,2.7591,2.7578,2.7596,2.7589,2.7586,2.7589,2.7579,2.7554,2.7536,2.7513,2.7445,2.7445,2.7412,2.7401,2.7391,2.7383,2.7347,2.7332,2.7487,2.7487,2.7488,0,0,2.7597,2.7601,2.7583,2.7563,2.7561,2.7532,2.7588,2.7555,2.7533,2.758,2.7534,2.7535,2.7527,2.7467,2.7441,2.7465,2.7341,2.7383,2.7375,2.7372,2.7339,2.7324,2.7311,2.7483,2.7484,2.7485,0,0,2.7498,2.7499,2.7456,2.7453,2.7449,2.7461,2.7451,2.7454,2.7457,2.7411,2.7446,2.742,2.7375,2.7368,2.7358,2.7258,2.7284,2.7249,2.7189,2.7154,2.7141,2.7131,2.7094,2.7081,2.7242,2.7241,2.7241,0,2.7441,2.7401,2.7429,2.7394,2.7384,2.7429,2.7384,2.7378,2.7366,2.7357,2.7384,2.733,2.7327,2.7267,2.7243,2.7234,2.7221,2.7249,2.7141,2.7131,2.7121,2.7087,2.7073,2.7237,2.7238,2.7238,2.7239,0,2.733,2.7301,2.7266,2.7256,2.7242,2.7202,2.7223,2.7205,2.7225,2.7234,2.7186,2.7185,2.7163,2.715,2.7168,2.7092,2.7107,2.7137,2.7185,2.7102,2.707,2.7057,2.7231,2.7233,2.7234,2.7235,0,0,2.7184,2.7192,2.7179,2.7175,2.7175,2.7152,2.7114,2.7095,2.7078,2.7068,2.7036,2.6998,2.7027,2.7016,2.7033,2.7002,2.6922,2.7037,2.7037,2.7015,2.6838,2.6814,2.6799,2.6941,2.6938,2.6936,2.6839,0,2.7087,2.7025,2.705,2.6984,2.6958,2.7,2.6967,2.6962,2.6969,2.6947,2.6954,2.6927,2.6967,2.6961,2.6932,2.6938,2.6887,2.6946,2.6909,2.6907,2.6909,2.6782,2.6757,2.6664,2.6826,2.6824,2.6823,0,2.6965,2.6953,2.6885,2.6891,2.688,2.685,2.6835,2.6813,2.6808,2.6816,2.6804,2.6829,2.679,2.6839,2.6785,2.6825,2.6811,2.6812,2.6809,2.6805,2.6859,2.6774,2.6636,2.6621,2.6803,2.6805,2.6806,0,2.6865,2.6832,2.6788,2.6783,2.6788,2.6766,2.6766,2.6764,2.6751,2.6737,2.6729,2.6709,2.6698,2.6682,2.67,2.6734,2.6643,2.6693,2.6647,2.6646,2.6625,2.6625,2.6481,2.6617,2.6617,2.6618,2.6618,0,2.6754,2.671,2.6743,2.6715,2.6668,2.6697,2.6648,2.6653,2.6651,2.6624,2.6659,2.6632,2.6659,2.6634,2.6647,2.66,2.6595,2.6599,2.6603,2.6595,2.6595,2.6586,2.6592,2.6614,2.6615,2.6616,2.6616,0,2.6633,2.6654,2.6608,2.6618,2.6619,2.6583,2.659,2.6564,2.6575,2.654,2.6534,2.655,2.6523,2.654,2.6511,2.6521,2.6459,2.6472,2.6462,2.6465,2.6417,2.6421,2.6261,2.6241,2.6391,2.639,2.6388,0,2.656,2.6529,2.6535,2.6521,2.652,2.6496,2.6484,2.6511,2.6496,2.6489,2.6463,2.644,2.6422,2.6376,2.6384,2.6363,2.6375,2.6321,2.6372,2.6365,2.6373,2.6375,2.6371,2.631,2.6308,2.6306,2.6305,0,2.6428,2.6441,2.6423,2.6409,2.6394,2.6383,2.6375,2.6361,2.6388,2.637,2.6344,2.633,2.6303,2.6278,2.6261,2.6259,2.6286,2.629,2.6278,2.6269,2.6264,2.6265,2.6432,2.6293,2.6294,2.6295,2.6295,2.6296,2.6329,2.6303,2.6304,2.6283,2.6281,2.6273,2.6249,2.6258,2.6238,2.6219,2.6236,2.6205,2.62,2.618,2.6175,2.615,2.6172,2.6154,2.615,2.6145,2.6138,2.6269,2.6147,2.6147,2.6147,2.6148,2.6148,0,2.6199,2.6202,2.6183,2.6172,2.6155,2.6185,2.6178,2.6161,2.6134,2.6129,2.6112,2.6082,2.6059,2.6066,2.6045,2.6023,2.6035,2.6016,2.6018,2.6017,2.612,2.6132,2.6007,2.6007,2.6007,2.6007,2.6007,2.6007,2.6129,2.6086,2.6098,2.6055,2.6058,2.6029,2.6023,2.6015,2.6011,2.5977,2.5959,2.5965,2.5964,2.5944,2.5923,2.5926,2.5916,2.5893,2.59,2.5996,2.6009,2.6023,2.6034,2.5891,2.5891,2.5799,2.5798,2.5797]}]]